Location: Ballingbuur
(53.0000°N, 5.7667°E)
Time: 16:13:12
(UTC+00:00)

Meteor 1-31 Rocket - Visible Passes

Search period start: 13 April 2021 00:00
Search period end: 23 April 2021 00:00
Orbit: 519 x 547 km, 97.7° (Epoch: 13 April)

Date Brightness Start Highest point End Pass type
(mag) Time Alt. Az. Time Alt. Az. Time Alt. Az.
13 Apr 6.2 03:19:46 10° ENE 03:20:28 10° E 03:21:09 10° E visible
20 Apr 5.6 03:45:55 10° NE 03:48:44 19° E 03:51:33 10° SE visible
21 Apr 5.7 03:36:46 10° NE 03:39:09 16° E 03:41:33 10° SE visible
22 Apr 5.9 03:27:45 10° ENE 03:29:33 13° E 03:31:21 10° ESE visible
